TimePST,TemperatureF,Dew PointF,Humidity,Sea Level PressureIn,VisibilityMPH,Wind Direction,Wind SpeedMPH,Gust SpeedMPH,PrecipitationIn,Events,Conditions,WindDirDegrees,DateUTC
12:12 AM,21.0,17.1,85,30.22,2.5,SW,6.9,-,0.00,Snow,Light Snow,220,2013-12-07 08:12:00
12:24 AM,21.0,16.0,81,30.22,5.0,WSW,4.6,-,0.00,Snow,Light Snow,250,2013-12-07 08:24:00
12:36 AM,21.0,16.0,81,30.22,10.0,SW,5.8,-,0.00,,Overcast,230,2013-12-07 08:36:00
12:53 AM,19.9,15.1,81,30.24,5.0,SSW,9.2,-,0.00,,Haze,210,2013-12-07 08:53:00
1:14 AM,19.9,14.0,78,30.23,6.0,SSW,9.2,-,0.00,,Haze,210,2013-12-07 09:14:00
1:32 AM,19.9,14.0,78,30.23,7.0,SW,5.8,-,0.00,,Overcast,220,2013-12-07 09:32:00
1:49 AM,19.4,15.8,86,30.24,2.0,SE,8.1,-,0.00,Snow,Light Snow,130,2013-12-07 09:49:00
1:53 AM,19.0,15.1,85,30.26,1.2,ESE,8.1,-,0.00,Snow,Light Snow,110,2013-12-07 09:53:00
2:04 AM,19.9,12.9,74,30.25,3.0,ESE,6.9,-,0.00,Snow,Light Snow,110,2013-12-07 10:04:00
2:25 AM,19.0,12.0,74,30.25,10.0,SE,3.5,-,0.00,,Overcast,140,2013-12-07 10:25:00
2:53 AM,19.0,10.0,68,30.28,10.0,Calm,Calm,-,0.00,,Overcast,0,2013-12-07 10:53:00
3:53 AM,18.0,9.0,68,30.29,10.0,South,6.9,-,N/A,,Overcast,170,2013-12-07 11:53:00
4:53 AM,17.1,8.1,68,30.31,10.0,SSE,3.5,-,N/A,,Overcast,160,2013-12-07 12:53:00
5:53 AM,17.1,7.0,65,30.34,10.0,SSW,4.6,-,N/A,,Overcast,200,2013-12-07 13:53:00
6:53 AM,15.1,7.0,70,30.36,10.0,ESE,4.6,-,N/A,,Overcast,120,2013-12-07 14:53:00
7:53 AM,12.9,5.0,71,30.39,10.0,East,5.8,-,N/A,,Overcast,100,2013-12-07 15:53:00
8:53 AM,12.9,3.9,67,30.42,10.0,East,6.9,-,N/A,,Mostly Cloudy,100,2013-12-07 16:53:00
9:53 AM,16.0,5.0,62,30.45,10.0,East,5.8,-,N/A,,Clear,100,2013-12-07 17:53:00
10:53 AM,19.9,7.0,57,30.45,10.0,NE,5.8,-,N/A,,Clear,50,2013-12-07 18:53:00
11:53 AM,21.0,3.9,48,30.44,10.0,NE,4.6,-,N/A,,Clear,40,2013-12-07 19:53:00
12:53 PM,19.9,1.0,44,30.44,10.0,South,5.8,-,N/A,,Clear,190,2013-12-07 20:53:00
1:53 PM,21.0,1.9,44,30.44,10.0,South,6.9,-,N/A,,Clear,180,2013-12-07 21:53:00
2:53 PM,19.9,1.9,46,30.45,10.0,ESE,6.9,-,N/A,,Clear,120,2013-12-07 22:53:00
3:53 PM,16.0,1.0,52,30.46,10.0,ESE,6.9,-,N/A,,Clear,110,2013-12-07 23:53:00
4:53 PM,12.9,-0.0,56,30.48,10.0,East,9.2,-,N/A,,Clear,90,2013-12-08 00:53:00
5:53 PM,10.0,-0.9,61,30.49,10.0,ESE,9.2,-,N/A,,Clear,110,2013-12-08 01:53:00
6:53 PM,10.0,1.0,67,30.50,10.0,SE,3.5,-,N/A,,Clear,130,2013-12-08 02:53:00
7:53 PM,7.0,-0.9,70,30.51,10.0,SE,3.5,-,N/A,,Clear,130,2013-12-08 03:53:00
8:53 PM,6.1,-0.0,76,30.51,10.0,WSW,4.6,-,N/A,,Clear,240,2013-12-08 04:53:00
9:53 PM,3.9,-0.0,84,30.53,10.0,Calm,Calm,-,N/A,,Clear,0,2013-12-08 05:53:00
10:53 PM,3.9,-0.9,80,30.53,10.0,Calm,Calm,-,N/A,,Clear,0,2013-12-08 06:53:00
11:53 PM,-0.0,-6.0,76,30.55,10.0,SE,5.8,-,N/A,,Clear,130,2013-12-08 07:53:00